[Iaude] MPEC B138: 2019 BX3 [a=1.44,e=0.29,i=15.5,H=26.1]

mpec at mpcdb1.cfa.harvard.edu mpec at mpcdb1.cfa.harvard.edu
Tue Jan 29 07:11:17 EST 2019


M.P.E.C. 2019-B138                               Issued 2019 Jan. 29, 12:08 UT
 
     The Minor Planet Electronic Circulars contain information on unusual
         minor planets and routine data on comets.  They are published
    on behalf of Division F of the International Astronomical Union by the
          Minor Planet Center, Smithsonian Astrophysical Observatory,
                          Cambridge, MA 02138, U.S.A.

             Prepared using the Tamkin Foundation Computer Network

                              MPC at CFA.HARVARD.EDU
            URL https://www.minorplanetcenter.net/    ISSN 1523-6714


                                   2019 BX3
 
Observations:
     K19B03X* C2019 01 28.25542 07 35 58.98 +41 26 06.5          20.2 GVEB138G96
     K19B03X  C2019 01 28.26114 07 35 58.67 +41 24 18.0          20.2 GVEB138G96
     K19B03X  C2019 01 28.26687 07 35 58.29 +41 22 28.7          20.2 GVEB138G96
     K19B03X  C2019 01 28.27267 07 35 57.94 +41 20 38.9          21.0 GVEB138G96
     K19B03X  C2019 01 28.33591 07 35 53.98 +41 00 25.3          21.3 GVEB138I52
     K19B03X  C2019 01 28.33741 07 35 53.87 +40 59 56.3          20.5 GVEB138I52
     K19B03X  C2019 01 28.33891 07 35 53.80 +40 59 26.6          19.7 GVEB138I52
     K19B03X  C2019 01 28.34041 07 35 53.73 +40 58 57.8          20.2 GVEB138I52
     K19B03X  C2019 01 28.42198 07 35 50.08 +40 32 20.4          20.3 GVEB138I52
     K19B03X  C2019 01 28.42348 07 35 50.00 +40 31 49.9          21.1 GVEB138I52
     K19B03X  C2019 01 28.42498 07 35 49.99 +40 31 20.5          20.8 GVEB138I52
     K19B03X  C2019 01 28.42648 07 35 49.95 +40 30 50.5          20.3 GVEB138I52
     K19B03X KC2019 01 28.77489707 36 15.83 +38 35 55.4          20.5 GVEB138J95
     K19B03X KC2019 01 28.78040507 36 15.77 +38 34 07.4          20.0 GVEB138J95
     K19B03X KC2019 01 28.88353 07 36 13.40 +38 00 09.8          20.5 GVEB138Z99
     K19B03X KC2019 01 28.88651 07 36 13.23 +37 59 10.3          20.5 GVEB138Z99
     K19B03X KC2019 01 28.88945 07 36 13.16 +37 58 11.1          20.6 GVEB138Z99
     K19B03X KC2019 01 28.89660 07 36 11.87 +37 56 13.9          20.2 GVEB138587
     K19B03X KC2019 01 28.89816 07 36 11.80 +37 55 43.0          20.0 GVEB138587
     K19B03X KC2019 01 28.91204 07 36 11.18 +37 51 06.0          20.0 GVEB138203
     K19B03X KC2019 01 28.93547 07 36 10.06 +37 43 13.5          20.1 GVEB138203
     K19B03X KC2019 01 28.96328 07 36 08.86 +37 33 48.7          20.4 GVEB138204
     K19B03X KC2019 01 28.97381 07 36 08.37 +37 30 14.1                VEB138204
     K19B03X KC2019 01 28.98584 07 36 07.80 +37 26 08.7                VEB138204
     K19B03X  C2019 01 29.39779 07 36 09.76 +35 04 35.1          20.4 GVEB138I52
     K19B03X  C2019 01 29.39924 07 36 09.68 +35 04 04.0          21.0 GVEB138I52
     K19B03X  C2019 01 29.40069 07 36 09.69 +35 03 33.4          20.8 GVEB138I52
     K19B03X  C2019 01 29.40215 07 36 09.58 +35 03 02.1          20.4 GVEB138I52
 
Observer details:
203 GiaGa Observatory.  Observers S. Foglia, G. Galli.  Measurer G. Galli.
    0.36-m f/7.50 Schmidt-Cassegrain + CCD.
204 Schiaparelli Observatory.  Observer L. Buzzi.  0.84-m f/3.5 reflector +
    CCD.
587 Sormano.  Observers F. Manca, P. Sicoli, A. Testa.  Measurer P. Sicoli.
    0.5-m f/6.8 reflector + CCD.
G96 Mt. Lemmon Survey.  Observer D. C. Fuls.  Measurers B. M. Africano,
    E. J. Christensen, G. A. Farneth, D. C. Fuls, A. R. Gibbs, A. D. Grauer,
    H. Groeller, R. A. Kowalski, S. M. Larson, G. J. Leonard, T. A. Pruyne,
    R. L. Seaman, F. C. Shelly.  1.5-m reflector + 10K CCD.
I52 Steward Observatory, Mt. Lemmon Station.  Observer H. Groeller.
    Measurers B. M. Africano, E. J. Christensen, G. A. Farneth, D. C. Fuls,
    A. R. Gibbs, A. D. Grauer, H. Groeller, R. A. Kowalski, S. M. Larson,
    G. J. Leonard, T. A. Pruyne, R. L. Seaman, F. C. Shelly.  1.0-m reflector
    + CCD.
J95 Great Shefford.  Observer P. Birtwhistle.  0.41-m f/6.3
    Schmidt-Cassegrain + CCD.
Z99 Clixby Observatory, Cleethorpes.  Observer A. Mickleburgh.  0.36-m f/8
    Schmidt-Cassegrain + CCD.
 
Orbital elements:
2019 BX3                                                 Earth MOID = 0.0437 AU
Epoch 2019 Apr. 27.0 TT = JDT 2458600.5                 MPC
M  45.98130              (2000.0)            P               Q
n   0.57102066     Peri.  185.28829     -0.71158905     -0.67244100
a   1.4389140      Node   310.28449     +0.65401008     -0.52804977
e   0.2858247      Incl.   15.48179     +0.25673300     -0.51863913
P   1.73           H   26.1           G   0.15           U   7
Residuals in seconds of arc
190128 G96  0.3-  0.1+    190128 I52  0.2-  0.4+    190128 203  0.4-  0.2-
190128 G96  0.3+  0.1-    190128 I52  0.2-  0.1+    190128 204  0.4+  0.0
190128 G96  0.2+  0.7-    190128 J95  0.1+  0.2+    190128 204  0.3+  0.1-
190128 G96  0.5+  0.3-    190128 J95  0.4-  0.2-    190128 204  0.0   0.2+
190128 I52  0.1+  0.2+    190128 Z99  1.3+  0.5+    190129 I52  0.0   0.1-
190128 I52  0.2-  0.2+    190128 Z99  0.4+  0.4+    190129 I52  0.4-  0.2-
190128 I52  0.0   0.4-    190128 Z99  0.7+  0.2-    190129 I52  0.4+  0.3+
190128 I52  0.2+  0.1-    190128 587  0.1-  1.0-    190129 I52  0.4-  0.3+
190128 I52  0.1-  1.0+    190128 587  0.1-  0.6-
190128 I52  0.6-  0.1+    190128 203  0.4-  0.0

Ephemeris:
2019 BX3                 a,e,i = 1.44, 0.29, 15                  q = 1.0276
Date    TT    R. A. (2000) Decl.     Delta      r     Elong.  Phase     V
2018 12 30    07 37 21.6 +84 53 53   0.1811  1.0805   118.1    53.4    24.5
...
2019 01 14    07 35 55.5 +77 54 03   0.1084  1.0473   123.5    51.5    23.3
...
2019 01 22    07 34 48.2 +64 59 22   0.07219 1.0358   134.4    42.8    22.1
...
2019 01 28    07 35 53.3 +42 45 38   0.05137 1.0304   152.1    26.5    20.9
2019 01 29    07 36 11.2 +37 22 07   0.04908 1.0298   155.7    23.2    20.7
2019 01 30    07 36 31.0 +31 29 44   0.04729 1.0293   158.9    20.2    20.5
...
2019 02 05    07 39 11.6 -06 36 29   0.04903 1.0276   147.6    30.9    20.9
...
2019 02 13    07 44 36.6 -36 41 20   0.07599 1.0299   122.3    54.1    22.5
...
2019 02 28    07 59 26.5 -53 21 06   0.1445  1.0475   109.5    63.1    24.2

A. U. Tomatic                (C) Copyright 2019 MPC           M.P.E.C. 2019-B138



More information about the Iaude mailing list